Location: Beemte
(52.2555°N, 5.9895°E)
Time: 15:58:56
(UTC+00:00)

Cosmos 2333 Rocket - Pass Details

Date: 15 May 2026
Orbit: 840 x 862 km, 70.8° (Epoch: 10 June)

Event Time Altitude Azimuth Distance (km) Brightness Sun altitude
Rises 21:34:27 0° 323° (NW) 3,424 7.2 -14.2°
Reaches altitude 10° 21:37:10 10° 313° (NW) 2,487 5.8 -14.4°
Maximum altitude 21:42:01 29° 254° (WSW) 1,505 3.6 -14.8°
Enters shadow 21:46:30 12° 198° (SSW) 2,371 4.1 -15.1°
